{"data":{"norad_id":49159,"epoch":"2026-05-25T03:05:53.419200Z","epoch_age_seconds":70734,"freshness":"FRESH","line1":"1 49159U 21082AF  26145.12909050 -.00001069  00000+0 -81783-4 0  9993","line2":"2 49159  69.9994 101.7264 0003275 271.7034  88.3749 14.98324925258526","mean_motion":14.98324925,"eccentricity":0.0003275,"inclination_deg":69.9994,"raan_deg":101.7264,"arg_perigee_deg":271.7034,"mean_anomaly_deg":88.3749,"bstar":-8.1783e-5,"rev_number":25852,"period_min":96.107324651227,"perigee_km":569.79539169599,"apogee_km":574.34777831917,"semimajor_km":6950.2085850076,"source":"CELESTRAK","updated_at":"2026-05-25T13:38:16.790075Z"}}